JST971 YPPH-YMML

Flight info

Callsign JST971
Flight time 3h 22m
Altitude 39000
Route HECTO DCT 3435S12701E 3537S13044E 3649S13530E DCT MTG Y53 ALAXO
Aircraft A20N/M-SDE2E3FGHIRWXY/LB1

Departure

Time 2026-05-04 02:32
Airport Perth International Airport (YPPH)

Arrival

Time 2026-05-04 05:54
Airport Melbourne Airport (YMML)
Time Latitude Longitude Altitude Speed Heading
2026-05-04 02:14 -31.93410 115.96183 58 ft 0 kts 286°
2026-05-04 02:24 -31.93412 115.96192 51 ft 3 kts 285°
2026-05-04 02:24 -31.93418 115.96215 49 ft 3 kts 285°
2026-05-04 02:24 -31.93423 115.96239 53 ft 3 kts 282°
2026-05-04 02:24 -31.93426 115.96261 50 ft 2 kts 272°
2026-05-04 02:25 -31.93425 115.96276 50 ft 2 kts 245°
2026-05-04 02:25 -31.93419 115.96286 55 ft 2 kts 217°
2026-05-04 02:25 -31.93412 115.96292 51 ft 1 kts 206°
2026-05-04 02:25 -31.93404 115.96296 48 ft 1 kts 203°
2026-05-04 02:26 -31.93399 115.96299 48 ft 0 kts 202°
2026-05-04 02:28 -31.93400 115.96299 48 ft 1 kts 202°
2026-05-04 02:28 -31.93454 115.96270 54 ft 16 kts 205°
2026-05-04 02:28 -31.93572 115.96201 55 ft 22 kts 195°
2026-05-04 02:29 -31.93684 115.96178 55 ft 13 kts 178°
2026-05-04 02:29 -31.93768 115.96175 60 ft 12 kts 214°
2026-05-04 02:29 -31.93817 115.96091 59 ft 14 kts 239°
2026-05-04 02:29 -31.93874 115.95981 57 ft 18 kts 239°
2026-05-04 02:30 -31.93942 115.95866 62 ft 15 kts 216°
2026-05-04 02:30 -31.93994 115.95865 61 ft 0 kts 156°
2026-05-04 02:31 -31.94018 115.95880 57 ft 9 kts 151°
2026-05-04 02:31 -31.94077 115.95951 60 ft 14 kts 91°
2026-05-04 02:31 -31.94054 115.96010 58 ft 13 kts 59°
2026-05-04 02:31 -31.93839 115.96431 60 ft 103 kts 59°
2026-05-04 02:32 -31.93330 115.97388 152 ft 162 kts 57°
2026-05-04 02:32 -31.92719 115.98528 946 ft 171 kts 58°
2026-05-04 02:32 -31.92052 115.99758 1816 ft 182 kts 57°
2026-05-04 02:32 -31.91355 116.01037 2596 ft 191 kts 59°
2026-05-04 02:33 -31.90622 116.02470 3125 ft 216 kts 60°
2026-05-04 02:33 -31.89840 116.04047 3784 ft 237 kts 60°
2026-05-04 02:33 -31.88973 116.05795 4365 ft 256 kts 60°
2026-05-04 02:33 -31.88072 116.07602 4477 ft 254 kts 60°
2026-05-04 02:34 -31.87178 116.09388 4594 ft 253 kts 60°
2026-05-04 02:34 -31.86281 116.11185 4706 ft 256 kts 62°
2026-05-04 02:34 -31.85540 116.13101 4833 ft 258 kts 72°
2026-05-04 02:34 -31.85092 116.15130 4944 ft 256 kts 78°
2026-05-04 02:35 -31.84711 116.17191 5148 ft 260 kts 77°
2026-05-04 02:35 -31.84309 116.19282 5828 ft 264 kts 77°
2026-05-04 02:35 -31.83898 116.21378 6962 ft 263 kts 78°
2026-05-04 02:35 -31.83483 116.23500 7886 ft 269 kts 78°
2026-05-04 02:36 -31.83061 116.25657 8830 ft 273 kts 78°
2026-05-04 02:36 -31.82637 116.27827 9767 ft 278 kts 79°
2026-05-04 02:36 -31.82200 116.30073 10554 ft 290 kts 79°
2026-05-04 02:36 -31.81733 116.32486 10905 ft 314 kts 79°
2026-05-04 02:37 -31.81230 116.35079 11321 ft 333 kts 79°
2026-05-04 02:37 -31.80705 116.37759 12143 ft 339 kts 79°
2026-05-04 02:37 -31.80171 116.40481 12968 ft 344 kts 79°
2026-05-04 02:37 -31.79628 116.43242 13794 ft 349 kts 79°
2026-05-04 02:38 -31.79265 116.45091 14310 ft 353 kts 79°
2026-05-04 02:38 -31.78527 116.48854 15259 ft 359 kts 79°
2026-05-04 02:38 -31.77959 116.51741 15965 ft 364 kts 79°
2026-05-04 02:38 -31.77384 116.54665 16659 ft 370 kts 79°
2026-05-04 02:39 -31.76997 116.56631 17114 ft 373 kts 79°
2026-05-04 02:39 -31.76408 116.59618 17809 ft 378 kts 79°
2026-05-04 02:39 -31.75808 116.62657 18479 ft 383 kts 78°
2026-05-04 02:39 -31.75200 116.65729 19102 ft 388 kts 78°
2026-05-04 02:40 -31.74586 116.68829 19719 ft 391 kts 78°
2026-05-04 02:40 -31.73964 116.71962 20328 ft 395 kts 78°
2026-05-04 02:40 -31.73131 116.76157 21116 ft 401 kts 78°
2026-05-04 02:40 -31.72700 116.78323 21531 ft 403 kts 78°
2026-05-04 02:41 -31.72057 116.81552 22117 ft 408 kts 78°
2026-05-04 02:41 -31.71415 116.84773 22702 ft 412 kts 78°
2026-05-04 02:41 -31.70758 116.88065 23270 ft 416 kts 78°
2026-05-04 02:41 -31.70094 116.91388 23845 ft 420 kts 78°
2026-05-04 02:42 -31.69423 116.94740 24339 ft 424 kts 78°
2026-05-04 02:42 -31.68743 116.98133 24833 ft 427 kts 78°
2026-05-04 02:42 -31.68058 117.01545 25303 ft 430 kts 78°
2026-05-04 02:42 -31.67414 117.04991 25758 ft 433 kts 83°
2026-05-04 02:43 -31.67264 117.08473 26168 ft 434 kts 95°
2026-05-04 02:43 -31.67737 117.11969 26613 ft 434 kts 107°
2026-05-04 02:43 -31.68730 117.15318 27033 ft 436 kts 112°
2026-05-04 02:43 -31.69798 117.18665 27446 ft 440 kts 112°
2026-05-04 02:44 -31.70869 117.22043 27858 ft 443 kts 112°
2026-05-04 02:44 -31.71943 117.25449 28256 ft 446 kts 112°
2026-05-04 02:44 -31.73022 117.28880 28643 ft 449 kts 112°
2026-05-04 02:44 -31.74107 117.32336 29022 ft 453 kts 112°
2026-05-04 02:45 -31.75201 117.35825 29380 ft 456 kts 112°
2026-05-04 02:45 -31.76297 117.39324 29742 ft 458 kts 112°
2026-05-04 02:45 -31.77402 117.42854 30079 ft 462 kts 112°
2026-05-04 02:45 -31.78504 117.46377 30436 ft 464 kts 112°
2026-05-04 02:46 -31.79619 117.49950 30747 ft 467 kts 112°
2026-05-04 02:46 -31.80742 117.53548 31047 ft 470 kts 112°
2026-05-04 02:46 -31.81872 117.57176 31360 ft 472 kts 112°
2026-05-04 02:46 -31.83004 117.60816 31704 ft 473 kts 112°
2026-05-04 02:47 -31.84135 117.64455 32093 ft 473 kts 112°
2026-05-04 02:47 -31.85267 117.68100 32489 ft 473 kts 112°
2026-05-04 02:47 -31.86395 117.71738 32876 ft 473 kts 112°
2026-05-04 02:47 -31.87507 117.75330 33252 ft 473 kts 111°
2026-05-04 02:48 -31.88634 117.78970 33631 ft 473 kts 111°
2026-05-04 02:48 -31.89756 117.82604 33982 ft 473 kts 111°
2026-05-04 02:48 -31.90882 117.86249 34344 ft 473 kts 111°
2026-05-04 02:48 -31.92002 117.89884 34660 ft 473 kts 111°
2026-05-04 02:49 -31.93122 117.93521 34967 ft 472 kts 111°
2026-05-04 02:49 -31.94241 117.97160 35249 ft 472 kts 111°
2026-05-04 02:49 -31.95356 118.00788 35534 ft 472 kts 112°
2026-05-04 02:49 -31.96472 118.04426 35804 ft 472 kts 112°
2026-05-04 02:50 -31.97587 118.08064 36076 ft 472 kts 112°
2026-05-04 02:50 -31.98698 118.11691 36341 ft 472 kts 112°
2026-05-04 02:50 -31.99810 118.15327 36599 ft 471 kts 112°
2026-05-04 02:50 -32.00921 118.18966 36853 ft 471 kts 112°
2026-05-04 02:51 -32.02029 118.22599 37095 ft 471 kts 112°
2026-05-04 02:51 -32.03140 118.26244 37333 ft 471 kts 112°
2026-05-04 02:51 -32.04247 118.29882 37564 ft 471 kts 112°
2026-05-04 02:51 -32.05339 118.33475 37784 ft 471 kts 112°
2026-05-04 02:52 -32.06442 118.37110 37986 ft 471 kts 112°
2026-05-04 02:52 -32.07693 118.40675 38201 ft 468 kts 120°
2026-05-04 02:52 -32.09217 118.44056 38398 ft 467 kts 121°
2026-05-04 02:52 -32.10758 118.47443 38595 ft 467 kts 121°
2026-05-04 02:53 -32.12291 118.50826 38804 ft 467 kts 121°
2026-05-04 02:53 -32.13821 118.54211 38989 ft 467 kts 121°
2026-05-04 02:53 -32.15348 118.57596 39146 ft 467 kts 121°
2026-05-04 02:53 -32.16874 118.60980 39280 ft 467 kts 121°
2026-05-04 02:54 -32.19929 118.67765 39408 ft 468 kts 121°
2026-05-04 02:54 -32.22976 118.74546 39410 ft 467 kts 121°
2026-05-04 02:55 -32.27535 118.84714 39406 ft 467 kts 121°
2026-05-04 02:56 -32.30554 118.91463 39408 ft 467 kts 121°
2026-05-04 02:56 -32.33585 118.98253 39417 ft 467 kts 121°
2026-05-04 02:57 -32.36615 119.05052 39415 ft 467 kts 121°
2026-05-04 02:57 -32.39646 119.11867 39412 ft 467 kts 121°
2026-05-04 02:58 -32.42649 119.18630 39409 ft 467 kts 121°
2026-05-04 02:58 -32.45673 119.25455 39408 ft 468 kts 121°
2026-05-04 02:59 -32.48693 119.32284 39408 ft 467 kts 121°
2026-05-04 02:59 -32.51710 119.39118 39409 ft 467 kts 121°
2026-05-04 03:00 -32.54720 119.45948 39408 ft 467 kts 121°
2026-05-04 03:00 -32.57707 119.52740 39409 ft 467 kts 121°
2026-05-04 03:01 -32.60709 119.59579 39407 ft 467 kts 121°
2026-05-04 03:01 -32.63705 119.66418 39402 ft 467 kts 121°
2026-05-04 03:02 -32.66701 119.73269 39403 ft 467 kts 121°
2026-05-04 03:02 -32.69692 119.80122 39399 ft 467 kts 121°
2026-05-04 03:03 -32.72662 119.86941 39398 ft 467 kts 121°
2026-05-04 03:03 -32.75647 119.93805 39399 ft 467 kts 121°
2026-05-04 03:04 -32.78623 120.00665 39397 ft 467 kts 121°
2026-05-04 03:04 -32.81599 120.07535 39399 ft 467 kts 121°
2026-05-04 03:05 -32.84568 120.14403 39398 ft 467 kts 121°
2026-05-04 03:05 -32.87536 120.21281 39399 ft 467 kts 121°
2026-05-04 03:06 -32.90499 120.28164 39396 ft 467 kts 121°
2026-05-04 03:06 -32.93463 120.35059 39404 ft 467 kts 121°
2026-05-04 03:07 -32.96404 120.41917 39405 ft 467 kts 121°
2026-05-04 03:07 -32.99354 120.48816 39403 ft 468 kts 120°
2026-05-04 03:08 -33.01756 120.56071 39402 ft 473 kts 111°
2026-05-04 03:08 -33.03756 120.63499 39402 ft 472 kts 111°
2026-05-04 03:09 -33.05791 120.70942 39394 ft 472 kts 111°
2026-05-04 03:09 -33.07822 120.78395 39391 ft 472 kts 111°
2026-05-04 03:10 -33.09846 120.85851 39400 ft 472 kts 111°
2026-05-04 03:10 -33.11862 120.93307 39392 ft 472 kts 111°
2026-05-04 03:11 -33.13857 121.00713 39387 ft 472 kts 111°
2026-05-04 03:11 -33.15862 121.08178 39388 ft 472 kts 111°
2026-05-04 03:12 -33.17860 121.15636 39383 ft 472 kts 111°
2026-05-04 03:12 -33.19858 121.23114 39383 ft 472 kts 111°
2026-05-04 03:13 -33.21836 121.30536 39381 ft 471 kts 111°
2026-05-04 03:13 -33.23820 121.38002 39378 ft 472 kts 111°
2026-05-04 03:14 -33.25799 121.45470 39381 ft 472 kts 111°
2026-05-04 03:14 -33.27775 121.52945 39381 ft 472 kts 111°
2026-05-04 03:15 -33.29747 121.60429 39381 ft 472 kts 111°
2026-05-04 03:15 -33.31718 121.67927 39378 ft 472 kts 111°
2026-05-04 03:16 -33.33683 121.75420 39378 ft 472 kts 111°
2026-05-04 03:16 -33.35631 121.82873 39373 ft 472 kts 111°
2026-05-04 03:17 -33.37589 121.90383 39372 ft 472 kts 111°
2026-05-04 03:17 -33.39540 121.97886 39373 ft 472 kts 111°
2026-05-04 03:18 -33.41475 122.05351 39371 ft 472 kts 111°
2026-05-04 03:18 -33.43413 122.12846 39369 ft 472 kts 111°
2026-05-04 03:19 -33.45351 122.20362 39367 ft 471 kts 111°
2026-05-04 03:19 -33.47282 122.27869 39369 ft 471 kts 111°
2026-05-04 03:20 -33.49207 122.35377 39357 ft 471 kts 111°
2026-05-04 03:20 -33.51118 122.42852 39356 ft 471 kts 110°
2026-05-04 03:21 -33.53032 122.50356 39352 ft 471 kts 110°
2026-05-04 03:21 -33.54944 122.57874 39356 ft 471 kts 110°
2026-05-04 03:22 -33.56856 122.65413 39355 ft 471 kts 110°
2026-05-04 03:22 -33.58745 122.72885 39350 ft 471 kts 110°
2026-05-04 03:23 -33.60639 122.80398 39351 ft 471 kts 110°
2026-05-04 03:23 -33.62532 122.87926 39348 ft 471 kts 110°
2026-05-04 03:24 -33.64419 122.95450 39347 ft 471 kts 110°
2026-05-04 03:24 -33.66300 123.02975 39348 ft 471 kts 110°
2026-05-04 03:25 -33.68176 123.10503 39346 ft 471 kts 110°
2026-05-04 03:25 -33.69732 123.16762 39346 ft 471 kts 110°
2026-05-04 03:26 -33.71600 123.24294 39345 ft 470 kts 110°
2026-05-04 03:26 -33.73462 123.31828 39343 ft 470 kts 110°
2026-05-04 03:27 -33.75321 123.39368 39343 ft 470 kts 110°
2026-05-04 03:27 -33.77176 123.46915 39339 ft 470 kts 110°
2026-05-04 03:28 -33.79026 123.54462 39340 ft 470 kts 110°
2026-05-04 03:28 -33.80857 123.61957 39343 ft 470 kts 110°
2026-05-04 03:29 -33.82697 123.69508 39338 ft 470 kts 110°
2026-05-04 03:29 -33.84531 123.77055 39337 ft 469 kts 110°
2026-05-04 03:30 -33.86357 123.84591 39332 ft 469 kts 110°
2026-05-04 03:30 -33.88178 123.92132 39328 ft 469 kts 110°
2026-05-04 03:31 -33.89982 123.99625 39325 ft 469 kts 110°
2026-05-04 03:31 -33.91793 124.07167 39324 ft 469 kts 109°
2026-05-04 03:32 -33.93596 124.14700 39322 ft 468 kts 109°
2026-05-04 03:32 -33.95396 124.22237 39320 ft 468 kts 109°
2026-05-04 03:33 -33.97191 124.29783 39323 ft 468 kts 109°
2026-05-04 03:33 -33.98982 124.37329 39316 ft 468 kts 109°
2026-05-04 03:34 -34.00765 124.44868 39317 ft 468 kts 109°
2026-05-04 03:34 -34.02543 124.52407 39316 ft 467 kts 109°
2026-05-04 03:35 -34.04305 124.59902 39314 ft 467 kts 109°
2026-05-04 03:35 -34.06074 124.67446 39315 ft 467 kts 109°
2026-05-04 03:36 -34.07837 124.74991 39319 ft 467 kts 109°
2026-05-04 03:36 -34.09595 124.82531 39316 ft 467 kts 109°
2026-05-04 03:37 -34.11349 124.90084 39306 ft 467 kts 109°
2026-05-04 03:37 -34.13097 124.97632 39310 ft 466 kts 109°
2026-05-04 03:38 -34.14827 125.05123 39313 ft 466 kts 109°
2026-05-04 03:38 -34.16564 125.12668 39309 ft 466 kts 109°
2026-05-04 03:39 -34.18294 125.20208 39308 ft 466 kts 109°
2026-05-04 03:39 -34.20021 125.27755 39303 ft 466 kts 109°
2026-05-04 03:40 -34.21744 125.35308 39300 ft 466 kts 108°
2026-05-04 03:40 -34.23459 125.42856 39298 ft 465 kts 108°
2026-05-04 03:41 -34.25162 125.50365 39303 ft 465 kts 108°
2026-05-04 03:41 -34.26868 125.57915 39292 ft 465 kts 108°
2026-05-04 03:42 -34.28569 125.65468 39296 ft 465 kts 108°
2026-05-04 03:42 -34.30267 125.73029 39292 ft 465 kts 108°
2026-05-04 03:43 -34.31956 125.80575 39290 ft 465 kts 108°
2026-05-04 03:43 -34.33640 125.88124 39287 ft 465 kts 108°
2026-05-04 03:44 -34.35320 125.95675 39282 ft 465 kts 108°
2026-05-04 03:44 -34.36984 126.03180 39286 ft 464 kts 108°
2026-05-04 03:45 -34.38654 126.10735 39283 ft 464 kts 108°
2026-05-04 03:45 -34.40322 126.18303 39280 ft 464 kts 108°
2026-05-04 03:46 -34.41983 126.25868 39278 ft 464 kts 108°
2026-05-04 03:46 -34.43629 126.33387 39282 ft 464 kts 108°
2026-05-04 03:47 -34.45281 126.40953 39286 ft 464 kts 108°
2026-05-04 03:47 -34.46928 126.48527 39281 ft 464 kts 108°
2026-05-04 03:48 -34.48569 126.56096 39282 ft 464 kts 108°
2026-05-04 03:48 -34.50207 126.63672 39276 ft 464 kts 108°
2026-05-04 03:49 -34.51830 126.71205 39275 ft 464 kts 108°
2026-05-04 03:49 -34.53460 126.78786 39277 ft 464 kts 108°
2026-05-04 03:50 -34.55083 126.86349 39270 ft 464 kts 108°
2026-05-04 03:50 -34.56705 126.93928 39271 ft 464 kts 108°
2026-05-04 03:51 -34.58320 127.01502 39271 ft 463 kts 108°
2026-05-04 03:51 -34.60312 127.08901 39259 ft 460 kts 114°
2026-05-04 03:52 -34.62583 127.16170 39265 ft 460 kts 114°
2026-05-04 03:52 -34.64784 127.23468 39264 ft 460 kts 113°
2026-05-04 03:53 -34.66948 127.30800 39265 ft 460 kts 113°
2026-05-04 03:53 -34.69097 127.38125 39264 ft 460 kts 113°
2026-05-04 03:54 -34.71230 127.45412 39265 ft 460 kts 113°
2026-05-04 03:54 -34.73371 127.52744 39260 ft 460 kts 113°
2026-05-04 03:55 -34.75506 127.60074 39259 ft 460 kts 113°
2026-05-04 03:55 -34.77641 127.67421 39256 ft 460 kts 113°
2026-05-04 03:56 -34.79752 127.74704 39255 ft 459 kts 113°
2026-05-04 03:56 -34.81874 127.82045 39255 ft 459 kts 113°
2026-05-04 03:57 -34.83989 127.89383 39257 ft 459 kts 113°
2026-05-04 03:57 -34.86098 127.96715 39252 ft 459 kts 113°
2026-05-04 03:58 -34.89251 128.07718 39245 ft 458 kts 113°
2026-05-04 03:58 -34.91349 128.15059 39243 ft 458 kts 113°
2026-05-04 03:59 -34.93428 128.22358 39243 ft 458 kts 113°
2026-05-04 03:59 -34.95514 128.29697 39244 ft 458 kts 113°
2026-05-04 04:00 -34.97596 128.37040 39240 ft 458 kts 113°
2026-05-04 04:00 -34.99677 128.44403 39239 ft 458 kts 113°
2026-05-04 04:01 -35.01741 128.51720 39234 ft 458 kts 113°
2026-05-04 04:01 -35.03810 128.59079 39231 ft 458 kts 113°
2026-05-04 04:02 -35.05876 128.66445 39234 ft 458 kts 113°
2026-05-04 04:02 -35.07938 128.73818 39233 ft 458 kts 113°
2026-05-04 04:03 -35.09985 128.81153 39233 ft 459 kts 113°
2026-05-04 04:03 -35.12039 128.88535 39232 ft 459 kts 113°
2026-05-04 04:04 -35.14088 128.95920 39228 ft 459 kts 113°
2026-05-04 04:04 -35.16132 129.03308 39239 ft 459 kts 112°
2026-05-04 04:05 -35.18176 129.10714 39238 ft 459 kts 112°
2026-05-04 04:05 -35.20211 129.18107 39231 ft 459 kts 112°
2026-05-04 04:06 -35.22246 129.25521 39232 ft 459 kts 112°
2026-05-04 04:06 -35.24263 129.32888 39230 ft 459 kts 112°
2026-05-04 04:07 -35.26289 129.40307 39226 ft 459 kts 112°
2026-05-04 04:07 -35.28309 129.47729 39227 ft 459 kts 112°
2026-05-04 04:08 -35.30325 129.55152 39222 ft 459 kts 112°
2026-05-04 04:08 -35.32324 129.62535 39227 ft 459 kts 112°
2026-05-04 04:09 -35.34330 129.69964 39226 ft 459 kts 112°
2026-05-04 04:09 -35.36332 129.77396 39218 ft 459 kts 112°
2026-05-04 04:10 -35.38331 129.84842 39217 ft 459 kts 112°
2026-05-04 04:10 -35.40325 129.92286 39214 ft 459 kts 112°
2026-05-04 04:11 -35.42313 129.99729 39213 ft 460 kts 112°
2026-05-04 04:11 -35.43964 130.05929 39210 ft 460 kts 112°
2026-05-04 04:12 -35.46273 130.14620 39208 ft 460 kts 112°
2026-05-04 04:12 -35.47932 130.20884 39208 ft 461 kts 112°
2026-05-04 04:13 -35.49911 130.28373 39212 ft 461 kts 112°
2026-05-04 04:13 -35.51874 130.35827 39207 ft 462 kts 111°
2026-05-04 04:14 -35.53846 130.43333 39211 ft 462 kts 111°
2026-05-04 04:14 -35.55816 130.50851 39208 ft 463 kts 111°
2026-05-04 04:15 -35.57783 130.58383 39209 ft 463 kts 111°
2026-05-04 04:15 -35.59751 130.65928 39206 ft 463 kts 111°
2026-05-04 04:16 -35.61718 130.73483 39210 ft 464 kts 111°
2026-05-04 04:16 -35.63740 130.80970 39205 ft 464 kts 112°
2026-05-04 04:17 -35.65817 130.88476 39208 ft 464 kts 112°
2026-05-04 04:17 -35.67888 130.96004 39199 ft 465 kts 112°
2026-05-04 04:18 -35.69953 131.03551 39204 ft 465 kts 112°
2026-05-04 04:18 -35.72009 131.11099 39200 ft 465 kts 112°
2026-05-04 04:19 -35.74049 131.18615 39201 ft 465 kts 112°
2026-05-04 04:19 -35.76098 131.26186 39200 ft 466 kts 112°
2026-05-04 04:20 -35.78143 131.33763 39202 ft 466 kts 112°
2026-05-04 04:20 -35.80179 131.41328 39190 ft 466 kts 112°
2026-05-04 04:21 -35.82215 131.48917 39191 ft 466 kts 112°
2026-05-04 04:21 -35.84244 131.56500 39187 ft 466 kts 112°
2026-05-04 04:22 -35.86260 131.64055 39189 ft 466 kts 112°
2026-05-04 04:22 -35.88282 131.71655 39183 ft 466 kts 111°
2026-05-04 04:23 -35.90300 131.79262 39182 ft 467 kts 111°
2026-05-04 04:23 -35.92314 131.86875 39174 ft 467 kts 111°
2026-05-04 04:24 -35.94324 131.94498 39180 ft 467 kts 111°
2026-05-04 04:24 -35.96331 132.02127 39173 ft 467 kts 111°
2026-05-04 04:25 -35.98332 132.09757 39171 ft 468 kts 111°
2026-05-04 04:25 -36.00332 132.17405 39166 ft 468 kts 111°
2026-05-04 04:26 -36.02327 132.25060 39172 ft 468 kts 111°
2026-05-04 04:26 -36.04321 132.32731 39164 ft 469 kts 111°
2026-05-04 04:27 -36.06299 132.40364 39167 ft 469 kts 111°
2026-05-04 04:27 -36.08286 132.48056 39162 ft 470 kts 111°
2026-05-04 04:28 -36.10269 132.55750 39165 ft 470 kts 111°
2026-05-04 04:28 -36.12248 132.63457 39164 ft 470 kts 111°
2026-05-04 04:29 -36.14225 132.71177 39161 ft 471 kts 111°
2026-05-04 04:29 -36.16197 132.78902 39155 ft 471 kts 111°
2026-05-04 04:30 -36.18166 132.86637 39160 ft 471 kts 111°
2026-05-04 04:30 -36.20132 132.94384 39146 ft 472 kts 111°
2026-05-04 04:31 -36.22093 133.02134 39139 ft 472 kts 111°
2026-05-04 04:31 -36.24056 133.09915 39142 ft 473 kts 111°
2026-05-04 04:32 -36.26014 133.17704 39142 ft 474 kts 110°
2026-05-04 04:32 -36.27958 133.25458 39138 ft 474 kts 110°
2026-05-04 04:33 -36.29911 133.33272 39144 ft 475 kts 110°
2026-05-04 04:33 -36.31864 133.41112 39135 ft 476 kts 110°
2026-05-04 04:34 -36.33813 133.48959 39141 ft 476 kts 110°
2026-05-04 04:34 -36.35759 133.56819 39131 ft 477 kts 110°
2026-05-04 04:35 -36.37703 133.64694 39136 ft 477 kts 110°
2026-05-04 04:35 -36.39644 133.72584 39132 ft 478 kts 110°
2026-05-04 04:36 -36.41583 133.80491 39134 ft 479 kts 110°
2026-05-04 04:36 -36.43518 133.88405 39137 ft 479 kts 110°
2026-05-04 04:37 -36.47377 134.04270 39117 ft 480 kts 110°
2026-05-04 04:38 -36.49303 134.12228 39120 ft 480 kts 110°
2026-05-04 04:38 -36.51223 134.20182 39114 ft 480 kts 110°
2026-05-04 04:39 -36.53127 134.28098 39112 ft 481 kts 109°
2026-05-04 04:39 -36.55039 134.36071 39109 ft 481 kts 109°
2026-05-04 04:40 -36.56945 134.44048 39107 ft 482 kts 109°
2026-05-04 04:40 -36.58853 134.52057 39103 ft 482 kts 109°
2026-05-04 04:41 -36.60754 134.60065 39098 ft 483 kts 109°
2026-05-04 04:41 -36.62652 134.68087 39097 ft 483 kts 109°
2026-05-04 04:42 -36.64548 134.76126 39097 ft 484 kts 109°
2026-05-04 04:42 -36.66441 134.84178 39092 ft 485 kts 109°
2026-05-04 04:43 -36.68319 134.92197 39094 ft 485 kts 109°
2026-05-04 04:43 -36.70208 135.00285 39089 ft 486 kts 109°
2026-05-04 04:44 -36.72094 135.08393 39089 ft 487 kts 109°
2026-05-04 04:44 -36.73976 135.16511 39081 ft 488 kts 108°
2026-05-04 04:45 -36.75856 135.24644 39083 ft 488 kts 108°
2026-05-04 04:47 -36.82296 135.53215 39077 ft 491 kts 105°
2026-05-04 04:47 -36.83944 135.61504 39071 ft 492 kts 106°
2026-05-04 04:48 -36.85625 135.69784 39070 ft 492 kts 106°
2026-05-04 04:49 -36.89769 135.90566 39056 ft 493 kts 105°
2026-05-04 04:49 -36.91413 135.98900 39062 ft 494 kts 105°
2026-05-04 04:50 -36.93041 136.07186 39057 ft 494 kts 105°
2026-05-04 04:50 -36.94674 136.15532 39059 ft 495 kts 105°
2026-05-04 04:51 -36.96307 136.23907 39058 ft 495 kts 105°
2026-05-04 04:51 -36.97930 136.32272 39049 ft 495 kts 105°
2026-05-04 04:52 -36.99551 136.40653 39052 ft 496 kts 105°
2026-05-04 04:52 -37.01167 136.49046 39044 ft 496 kts 105°
2026-05-04 04:53 -37.02776 136.57442 39044 ft 496 kts 104°
2026-05-04 04:53 -37.04382 136.65850 39037 ft 496 kts 104°
2026-05-04 04:54 -37.05980 136.74251 39038 ft 497 kts 104°
2026-05-04 04:54 -37.07576 136.82678 39031 ft 497 kts 104°
2026-05-04 04:55 -37.09166 136.91106 39029 ft 497 kts 104°
2026-05-04 04:55 -37.10740 136.99482 39020 ft 497 kts 104°
2026-05-04 04:56 -37.12319 137.07925 39020 ft 498 kts 104°
2026-05-04 04:56 -37.13893 137.16376 39017 ft 498 kts 103°
2026-05-04 04:57 -37.15208 137.23463 39019 ft 498 kts 103°
2026-05-04 04:57 -37.16773 137.31931 39007 ft 499 kts 103°
2026-05-04 04:58 -37.18324 137.40359 39015 ft 499 kts 103°
2026-05-04 04:58 -37.20143 137.50284 39007 ft 500 kts 103°
2026-05-04 04:59 -37.21430 137.57346 39008 ft 500 kts 103°
2026-05-04 04:59 -37.22978 137.65866 38995 ft 500 kts 102°
2026-05-04 05:00 -37.24519 137.74384 39003 ft 500 kts 102°
2026-05-04 05:01 -37.26821 137.87185 38999 ft 501 kts 102°
2026-05-04 05:01 -37.28348 137.95718 38996 ft 501 kts 102°
2026-05-04 05:02 -37.29870 138.04263 38990 ft 501 kts 102°
2026-05-04 05:02 -37.31387 138.12819 38986 ft 501 kts 102°
2026-05-04 05:03 -37.32887 138.21319 38980 ft 501 kts 102°
2026-05-04 05:04 -37.35890 138.38446 38977 ft 502 kts 101°
2026-05-04 05:04 -37.37383 138.47024 38973 ft 502 kts 101°
2026-05-04 05:06 -37.42443 138.76447 38965 ft 490 kts 104°
2026-05-04 05:06 -37.43160 138.80641 38963 ft 490 kts 104°
2026-05-04 05:07 -37.44592 138.89044 38959 ft 491 kts 104°
2026-05-04 05:07 -37.46018 138.97452 38955 ft 492 kts 103°
2026-05-04 05:09 -37.52382 139.35453 38935 ft 494 kts 103°
2026-05-04 05:10 -37.53785 139.43938 38930 ft 494 kts 103°
2026-05-04 05:10 -37.55177 139.52400 38709 ft 491 kts 103°
2026-05-04 05:11 -37.55857 139.56554 38198 ft 490 kts 103°
2026-05-04 05:11 -37.56542 139.60755 37627 ft 487 kts 103°
2026-05-04 05:11 -37.57222 139.64931 37020 ft 485 kts 104°
2026-05-04 05:11 -37.57898 139.69092 36429 ft 483 kts 104°
2026-05-04 05:12 -37.58568 139.73227 35845 ft 481 kts 105°
2026-05-04 05:12 -37.59233 139.77349 35268 ft 478 kts 105°
2026-05-04 05:12 -37.59894 139.81448 34686 ft 476 kts 105°
2026-05-04 05:12 -37.60550 139.85533 34112 ft 474 kts 106°
2026-05-04 05:13 -37.61201 139.89595 33449 ft 471 kts 106°
2026-05-04 05:13 -37.61850 139.93642 32735 ft 470 kts 107°
2026-05-04 05:13 -37.62495 139.97672 32011 ft 468 kts 107°
2026-05-04 05:13 -37.63138 140.01696 31277 ft 467 kts 107°
2026-05-04 05:14 -37.63778 140.05716 30542 ft 466 kts 107°
2026-05-04 05:14 -37.64414 140.09720 29910 ft 463 kts 107°
2026-05-04 05:14 -37.65042 140.13675 29199 ft 458 kts 107°
2026-05-04 05:14 -37.65665 140.17600 28488 ft 454 kts 106°
2026-05-04 05:15 -37.66281 140.21490 27801 ft 450 kts 106°
2026-05-04 05:15 -37.66892 140.25351 27135 ft 446 kts 105°
2026-05-04 05:15 -37.67488 140.29128 26507 ft 442 kts 105°
2026-05-04 05:15 -37.68087 140.32921 25876 ft 439 kts 105°
2026-05-04 05:16 -37.68679 140.36687 25341 ft 433 kts 104°
2026-05-04 05:16 -37.69258 140.40382 25213 ft 431 kts 104°
2026-05-04 05:16 -37.69846 140.44132 25094 ft 437 kts 104°
2026-05-04 05:16 -37.70433 140.47896 24979 ft 435 kts 104°
2026-05-04 05:17 -37.71014 140.51639 24900 ft 435 kts 104°
2026-05-04 05:17 -37.71597 140.55398 24896 ft 435 kts 103°
2026-05-04 05:17 -37.72178 140.59152 24894 ft 436 kts 103°
2026-05-04 05:17 -37.72760 140.62912 24893 ft 436 kts 103°
2026-05-04 05:18 -37.73341 140.66677 24895 ft 436 kts 103°
2026-05-04 05:18 -37.73920 140.70434 24893 ft 437 kts 103°
2026-05-04 05:18 -37.74518 140.74223 24885 ft 446 kts 98°
2026-05-04 05:18 -37.75073 140.78137 24886 ft 459 kts 94°
2026-05-04 05:19 -37.75327 140.82152 24880 ft 455 kts 88°
2026-05-04 05:19 -37.75464 140.86093 24885 ft 455 kts 89°
2026-05-04 05:19 -37.75628 140.90085 24883 ft 455 kts 89°
2026-05-04 05:19 -37.75795 140.94089 24881 ft 455 kts 89°
2026-05-04 05:20 -37.75959 140.98080 24882 ft 454 kts 89°
2026-05-04 05:20 -37.76118 141.02063 24876 ft 454 kts 89°
2026-05-04 05:20 -37.76274 141.06054 24878 ft 454 kts 89°
2026-05-04 05:20 -37.76427 141.10037 24879 ft 453 kts 89°
2026-05-04 05:21 -37.76576 141.13968 24875 ft 453 kts 89°
2026-05-04 05:21 -37.76728 141.17996 24875 ft 453 kts 89°
2026-05-04 05:21 -37.76876 141.21975 24874 ft 453 kts 89°
2026-05-04 05:21 -37.77022 141.25899 24868 ft 453 kts 89°
2026-05-04 05:22 -37.77168 141.29876 24870 ft 453 kts 89°
2026-05-04 05:22 -37.77313 141.33846 24867 ft 453 kts 89°
2026-05-04 05:22 -37.77438 141.37799 24872 ft 444 kts 92°
2026-05-04 05:22 -37.77569 141.41656 24867 ft 439 kts 93°
2026-05-04 05:23 -37.77707 141.45536 24870 ft 443 kts 93°
2026-05-04 05:23 -37.77846 141.49433 24868 ft 443 kts 93°
2026-05-04 05:23 -37.77984 141.53325 24865 ft 444 kts 92°
2026-05-04 05:23 -37.78120 141.57225 24866 ft 444 kts 92°
2026-05-04 05:24 -37.78255 141.61125 24863 ft 444 kts 92°
2026-05-04 05:24 -37.78388 141.65027 24859 ft 444 kts 92°
2026-05-04 05:24 -37.78521 141.68930 24861 ft 445 kts 92°
2026-05-04 05:24 -37.78652 141.72839 24856 ft 445 kts 92°
2026-05-04 05:25 -37.78783 141.76752 24856 ft 445 kts 92°
2026-05-04 05:25 -37.78912 141.80662 24855 ft 445 kts 92°
2026-05-04 05:25 -37.79040 141.84577 24854 ft 445 kts 92°
2026-05-04 05:25 -37.79165 141.88434 24851 ft 446 kts 92°
2026-05-04 05:26 -37.79290 141.92355 24850 ft 446 kts 92°
2026-05-04 05:26 -37.79414 141.96271 24850 ft 446 kts 92°
2026-05-04 05:26 -37.79537 142.00193 24854 ft 446 kts 92°
2026-05-04 05:26 -37.79659 142.04120 24849 ft 446 kts 92°
2026-05-04 05:27 -37.79779 142.08041 24852 ft 446 kts 92°
2026-05-04 05:28 -37.80583 142.35514 24843 ft 446 kts 91°
2026-05-04 05:29 -37.80691 142.39439 24842 ft 447 kts 91°
2026-05-04 05:29 -37.80798 142.43309 24838 ft 447 kts 91°
2026-05-04 05:29 -37.80906 142.47285 24839 ft 446 kts 91°
2026-05-04 05:29 -37.81010 142.51160 24837 ft 447 kts 91°
2026-05-04 05:31 -37.81706 142.78436 23208 ft 435 kts 91°
2026-05-04 05:31 -37.81798 142.82225 22447 ft 429 kts 91°
2026-05-04 05:32 -37.81888 142.85989 21629 ft 425 kts 91°
2026-05-04 05:32 -37.81975 142.89708 20853 ft 421 kts 91°
2026-05-04 05:32 -37.82060 142.93388 20100 ft 417 kts 91°
2026-05-04 05:33 -37.82225 143.00662 18626 ft 410 kts 91°
2026-05-04 05:33 -37.82305 143.04243 17901 ft 406 kts 91°
2026-05-04 05:33 -37.82383 143.07794 17138 ft 402 kts 91°
2026-05-04 05:33 -37.82460 143.11309 16382 ft 398 kts 90°
2026-05-04 05:34 -37.82535 143.14798 15652 ft 395 kts 90°
2026-05-04 05:34 -37.82607 143.18255 14948 ft 391 kts 90°
2026-05-04 05:34 -37.82678 143.21640 14265 ft 388 kts 90°
2026-05-04 05:34 -37.82747 143.25039 13590 ft 385 kts 90°
2026-05-04 05:35 -37.82815 143.28382 13199 ft 377 kts 90°
2026-05-04 05:35 -37.82882 143.31743 13008 ft 384 kts 90°
2026-05-04 05:35 -37.82948 143.35125 12881 ft 382 kts 90°
2026-05-04 05:35 -37.83013 143.38474 12841 ft 380 kts 90°
2026-05-04 05:36 -37.83077 143.41827 12839 ft 382 kts 90°
2026-05-04 05:36 -37.83140 143.45186 12842 ft 381 kts 90°
2026-05-04 05:36 -37.83201 143.48535 12838 ft 382 kts 90°
2026-05-04 05:36 -37.83263 143.51894 12834 ft 382 kts 89°
2026-05-04 05:37 -37.83323 143.55253 12834 ft 382 kts 89°
2026-05-04 05:37 -37.83382 143.58609 12836 ft 382 kts 89°
2026-05-04 05:37 -37.83441 143.61970 12843 ft 381 kts 89°
2026-05-04 05:38 -37.83554 143.68675 12845 ft 382 kts 89°
2026-05-04 05:38 -37.83610 143.72033 12834 ft 381 kts 89°
2026-05-04 05:38 -37.83665 143.75391 12845 ft 381 kts 89°
2026-05-04 05:38 -37.83719 143.78742 12845 ft 382 kts 89°
2026-05-04 05:39 -37.83771 143.82061 12842 ft 381 kts 89°
2026-05-04 05:39 -37.83872 143.88768 12844 ft 382 kts 89°
2026-05-04 05:39 -37.83922 143.92134 12838 ft 383 kts 89°
2026-05-04 05:40 -37.83885 143.98843 12839 ft 379 kts 81°
2026-05-04 05:40 -37.83506 144.02131 12805 ft 377 kts 78°
2026-05-04 05:40 -37.83123 144.05410 12521 ft 375 kts 78°
2026-05-04 05:41 -37.82754 144.08644 12111 ft 364 kts 78°
2026-05-04 05:41 -37.82406 144.11718 11908 ft 344 kts 78°
2026-05-04 05:41 -37.82074 144.14635 11662 ft 326 kts 78°
2026-05-04 05:41 -37.81749 144.17445 11137 ft 320 kts 77°
2026-05-04 05:42 -37.81425 144.20219 10561 ft 317 kts 77°
2026-05-04 05:42 -37.81102 144.22964 9975 ft 315 kts 77°
2026-05-04 05:42 -37.80782 144.25692 9386 ft 311 kts 77°
2026-05-04 05:42 -37.80576 144.27458 9176 ft 304 kts 77°
2026-05-04 05:43 -37.80261 144.30136 9014 ft 310 kts 76°
2026-05-04 05:43 -37.79942 144.32825 8968 ft 310 kts 77°
2026-05-04 05:43 -37.79516 144.36433 8972 ft 311 kts 77°
2026-05-04 05:45 -37.79613 144.53631 6604 ft 282 kts 94°
2026-05-04 05:45 -37.80016 144.56883 5990 ft 278 kts 94°
2026-05-04 05:47 -37.82050 144.72617 3747 ft 269 kts 102°
2026-05-04 05:47 -37.82815 144.74789 3364 ft 268 kts 115°
2026-05-04 05:47 -37.83694 144.76789 3201 ft 254 kts 114°
2026-05-04 05:48 -37.84295 144.78810 2874 ft 238 kts 88°
2026-05-04 05:48 -37.84181 144.80777 2663 ft 217 kts 72°
2026-05-04 05:48 -37.83948 144.82624 2510 ft 213 kts 72°
2026-05-04 05:48 -37.83708 144.84499 2488 ft 213 kts 69°
2026-05-04 05:49 -37.83052 144.86071 2487 ft 190 kts 33°
2026-05-04 05:49 -37.81991 144.86682 2502 ft 165 kts 357°
2026-05-04 05:49 -37.80857 144.86470 2505 ft 166 kts 346°
2026-05-04 05:49 -37.79753 144.86212 2502 ft 154 kts 349°
2026-05-04 05:51 -37.73267 144.85029 1466 ft 105 kts 348°
2026-05-04 05:51 -37.72535 144.84892 1242 ft 108 kts 349°
2026-05-04 05:52 -37.71803 144.84730 1053 ft 101 kts 351°
2026-05-04 05:52 -37.71104 144.84590 931 ft 106 kts 353°
2026-05-04 05:52 -37.70357 144.84424 829 ft 112 kts 355°
2026-05-04 05:52 -37.69586 144.84292 659 ft 113 kts 355°
2026-05-04 05:53 -37.68825 144.84146 461 ft 109 kts 354°
2026-05-04 05:54 -37.66741 144.83983 392 ft 9 kts 49°
2026-05-04 05:55 -37.66722 144.84080 394 ft 15 kts 96°
2026-05-04 05:55 -37.66797 144.84186 391 ft 18 kts 155°
2026-05-04 05:55 -37.66940 144.84220 387 ft 24 kts 172°
2026-05-04 05:55 -37.67120 144.84255 383 ft 21 kts 172°
2026-05-04 05:56 -37.67222 144.84273 381 ft 17 kts 171°
2026-05-04 05:56 -37.67348 144.84296 379 ft 14 kts 173°
2026-05-04 05:56 -37.67444 144.84315 376 ft 7 kts 166°
2026-05-04 05:56 -37.67476 144.84366 376 ft 9 kts 92°
2026-05-04 05:57 -37.67470 144.84443 377 ft 9 kts 83°
2026-05-04 05:57 -37.67461 144.84505 378 ft 6 kts 79°
2026-05-04 05:57 -37.67455 144.84570 379 ft 9 kts 83°
2026-05-04 05:57 -37.67448 144.84633 380 ft 0 kts 79°
2026-05-04 05:58 -37.67445 144.84658 381 ft 6 kts 79°
2026-05-04 05:58 -37.67439 144.84718 381 ft 6 kts 87°
2026-05-04 05:58 -37.67449 144.84729 381 ft 2 kts 159°
2026-05-04 05:58 -37.67478 144.84733 380 ft 7 kts 175°
2026-05-04 05:59 -37.67506 144.84737 380 ft 2 kts 170°
2026-05-04 05:59 -37.67525 144.84741 379 ft 0 kts 171°